Historyczne dane pomiarowe

Dodano dane terminowe – wersja testowa.

Dane z okresu 1951-2019

Wersja bazy: 1.34 [2019-03-16, lista zmian], aktualizacja planowana na 2019-04-15

Dane meteo z obszaru Polski uzyskane na podstawie danych udostępnionych przez Instytut Meteorologii i Gospodarki Wodnej – Państwowy Instytut Badawczy.

 

Wybierz Datę:    

       

TemperaturaWilgotnośćWiatrCiśnienieOpadyŚniegCzas trwania zjawisk
 Stacja t tx tn tng RH VA  wxwx mslp ppp RRR   cm mm wxwxwxwxwxwxwx
2019-06-29 22.5 30.1 12.4 10.2 54.3- 2.0 2.0---- 0.0------------
2019-06-28 19.7 24.8 13.2 11.2 55.8- 5.0 2.3---- 0.0------------
2019-06-27 22.9 31.1 17.8 19.1 50.8- 2.0 3.7---- 0.0------------
2019-06-26 28.6 38.1 19.1 16.5 54.5- 4.0 2.3---- 0.1------------
2019-06-25 25.5 32.6 15.1 11.2 54.0- 4.3 1.7---- 0.0------------
2019-06-24 21.2 28.7 10.4 7.5 57.8- 1.3 3.0---- 0.0------------
2019-06-23 21.0 25.7 15.1 14.0 51.8- 5.0 3.7---- 0.0------------
2019-06-22 20.6 25.3 13.9 10.9 55.5- 4.0 4.0---- 0.0------------
2019-06-21 22.0 27.7 17.3 16.1 68.8- 5.3 1.3---- 0.2------------
2019-06-20 25.2 30.7 17.9 14.5 49.5- 4.3 2.3---- 0.1------------
2019-06-19 23.9 30.7 16.2 13.5 56.5- 5.0 1.7---- 0.0------------
2019-06-18 21.4 27.4 12.3 10.2 51.3- 3.7 3.0---- 0.0------------
2019-06-17 20.5 26.3 11.6 9.6 52.3- 3.7 1.7---- 0.0------------
2019-06-16 22.2 27.1 18.7 18.4 58.8- 5.3 2.3---- 0.0------------
2019-06-15 26.6 34.7 20.8 19.9 56.5- 5.3 3.7---- 0.1------------
2019-06-14 22.6 29.4 13.6 11.9 60.5- 2.7 2.3---- 0.0------------
2019-06-13 22.2 29.8 16.8 16.3 70.8- 7.0 2.0---- 1.6------------
2019-06-12 27.7 33.5 21.2 17.8 51.0- 4.7 3.3---- 0.8------------
2019-06-11 27.0 33.3 19.4 15.2 58.3- 2.3 3.0---- 0.0------------
2019-06-10 24.3 29.8 18.0 16.9 59.0- 6.3 2.7---- 0.0------------
2019-06-09 18.5 25.6 7.8 5.5 48.0- 4.0 2.0---- 0.0------------
2019-06-08 19.4 23.2 14.4 13.3 59.5- 5.0 2.3---- 0.0------------
2019-06-07 18.3 22.7 14.2 15.0 84.5- 5.3 2.0---- 0.0------------
2019-06-06 22.5 29.1 17.6 15.7 63.0- 4.7 3.0---- 5.9------------
2019-06-05 23.8 29.7 15.2 11.2 54.3- 3.7 4.0---- 0.0------------
2019-06-04 23.6 29.7 16.3 13.2 53.5- 2.7 1.7---- 0.0------------
2019-06-03 23.5 30.1 14.4 11.3 52.8- 0.0 2.3---- 0.0------------
2019-06-02 21.4 28.0 12.8 11.2 63.5- 3.0 1.0---- 0.0------------
2019-06-01 20.3 26.1 14.3 13.0 71.3- 4.3 1.0---- 0.0------------
2019-05-31 17.5 23.5 9.8 7.9 62.5- 7.0 1.3---- 0.0------------
2019-05-30 13.2 20.0 3.5 1.6 52.0- 2.0 1.3---- 0.0------------
2019-05-29 12.3 16.3 8.2 8.2 68.8- 6.3 3.3---- 0.0------------
2019-05-28 15.6 21.2 13.2 13.0 96.0- 8.0 1.7---- 11.6------------
2019-05-27 19.2 24.7 12.7 10.2 53.8- 6.7 1.7---- 10.4------------
2019-05-26 15.8 22.8 7.8 5.8 57.8- 5.3 2.0---- 0.0------------
2019-05-25 15.6 21.0 9.3 7.6 66.0- 4.3 2.7---- 0.0------------
2019-05-24 13.5 20.4 4.4 2.6 68.8- 6.7 1.0---- 0.0------------
2019-05-23 13.1 16.6 10.0 10.0 81.3- 7.0 1.3---- 0.0------------
2019-05-22 14.3 17.8 12.2 12.3 96.5- 8.0 3.0---- 7.3------------
2019-05-21 16.7 23.2 10.2 7.6 73.5- 6.0 1.3---- 9.3------------
2019-05-20 17.2 21.3 11.7 8.7 76.3- 6.7 3.3---- 0.1------------
2019-05-19 16.8 24.4 9.3 7.2 73.5- 5.7 3.0---- 0.0------------
2019-05-18 16.5 23.4 8.0 5.8 64.8- 2.3 2.0---- 0.1------------
2019-05-17 12.2 18.6 5.3 4.4 81.3- 6.0 1.3---- 0.0------------
2019-05-16 10.2 13.0 7.3 7.5 92.5- 7.3 1.0---- 0.0------------
2019-05-15 7.8 12.0 4.5 2.6 91.0- 8.0 3.7---- 6.5------------
2019-05-14 8.0 12.9 1.1 -1.1 70.5- 5.7 5.0---- 2.3------------
2019-05-13 9.4 13.6 5.3 3.8 62.3- 5.3 2.0---- 0.0------------
2019-05-12 9.3 13.4 5.0 4.7 86.0- 7.3 2.7---- 4.4------------
2019-05-11 10.7 15.6 4.4 2.6 78.0- 7.3 2.0---- 6.4------------
2019-05-10 11.1 16.0 4.4 2.2 83.3- 6.3 1.3---- 4.8------------
2019-05-09 11.9 15.6 9.3 8.5 88.3- 7.3 2.3---- 2.8------------
2019-05-08 10.2 17.4 -0.4 -2.7 57.3- 5.7 2.7---- 1.1------------
2019-05-07 7.4 12.1 1.6 -1.6 67.0- 4.7 1.7---- 0.0------------
2019-05-06 6.4 12.9 -0.7 -2.5 63.0- 5.3 1.3---- 0.0------------
2019-05-05 6.4 11.9 0.8 -0.3 68.8- 4.7 2.3---- 0.0------------
2019-05-04 5.9 10.2 3.2 1.2 79.0- 6.7 1.0---- 7.6------------
2019-05-03 9.8 13.4 7.8 5.3 46.0- 7.3 3.0---- 0.0------------
2019-05-02 11.3 16.8 7.2 4.4 67.8- 4.7 4.0---- 0.0------------
2019-05-01 12.4 18.6 4.7 1.0 60.3- 5.0 2.3---- 0.0------------
189.9 ms

 

Źródłem pochodzenia danych jest Instytut Meteorologii i Gospodarki Wodnej – Państwowy Instytut Badawczy. Dane Instytutu Meteorologii i Gospodarki Wodnej – Państwowego Instytutu Badawczego zostały przetworzone.

Dane źródłowe można odnaleźć na stronie https://dane.imgw.pl